Location: Darmstadt
(49.8706°N, 8.6494°E)
Time: 07:10:37
(UTC+01:00)

SAR-Lupe-4 - Pass Details

Date: 31 October 2020
Orbit: 481 x 484 km, 98.2° (Epoch: 25 November)

Event Time Altitude Azimuth Distance (km) Brightness Sun altitude
Rises 18:46:55 0° 11° (N) 2,557 7.1 -17.1°
Reaches altitude 10° 18:49:00 10° 8° (N) 1,672 6.2 -17.4°
Maximum altitude 18:52:32 60° 288° (WNW) 557 4.1 -18.0°
Drops below altitude 10° 18:56:03 10° 208° (SSW) 1,658 6.6 -18.5°
Sets 18:58:07 0° 205° (SSW) 2,533 7.5 -18.9°
